Tracking 25612 objects as of 20-May-2022
HD Live streaming from Space Station
objects crossing your sky now

COSMOS 2251 DEB

Track COSMOS 2251 DEB now!
10-day predictions


NORAD ID: 34032
Int'l Code: 1993-036HT
Perigee: 699.3 km
Apogee: 769.3 km
Inclination: 74.0 °
Period: 99.3 minutes
Semi major axis: 7105 km
RCS: 0.032 m2 (small)
Launch date: June 16, 1993
Source: Commonwealth of Independent States (former USSR) (CIS)
Launch site: PLESETSK MISSILE AND SPACE COMPLEX (PKMTR)

Note: This is SATELLITE DEBRIS
aabbcc
Your satellite tracking list
Your tracking list is empty




NASA's NSSDC Master Catalog

Two Line Element Set (TLE):
1 34032U 93036HT  22139.53484062  .00011666  00000-0  29966-2 0  9996
2 34032  74.0350  79.5592 0049218 110.8911   7.8454 14.49542756696562
Source of the keplerian elements: AFSPC